Location: *
(46.3500°N, 10.9000°E)
Time: 22:19:43
(UTC+00:00)

A-11 Canister half - Pass Details

Date: 25 April 2021
Orbit: 1526 x 1682 km, 47.3° (Epoch: 13 May)

Event Time Altitude Azimuth Distance (km) Brightness Sun altitude
Rises 15:36:54 0° 266° (W) 4,875 13.0 26.4°
Reaches altitude 10° 15:40:00 10° 267° (W) 3,905 13.0 25.9°
Maximum altitude 15:50:08 85° 357° (N) 1,688 9.7 24.1°
Drops below altitude 10° 16:00:22 10° 87° (E) 3,944 10.6 22.4°
Sets 16:03:31 0° 88° (E) 4,926 11.1 21.8°
